Location: Arclight Observatory
(36.5667°N, 87.3333°W)
Time: 06:47:25
(UTC-05:00)

Hubble Space Telescope - Visible Passes

Search period start: 01 May 2016 00:00
Search period end: 11 May 2016 00:00
Orbit: 539 x 543 km, 28.5° (Epoch: 30 April)

Date Brightness Start Highest point End Pass type
(mag) Time Alt. Az. Time Alt. Az. Time Alt. Az.
01 May 2.4 04:17:54 19° S 04:18:07 19° SSE 04:21:08 10° ESE visible
02 May 2.3 04:08:42 21° SSE 04:08:42 21° SSE 04:11:37 10° ESE visible
03 May 2.4 03:59:30 22° SSE 03:59:30 22° SSE 04:02:03 10° ESE visible
04 May 2.5 03:50:21 21° SE 03:50:21 21° SE 03:52:27 10° ESE visible
05 May 2.7 03:41:14 18° SE 03:41:14 18° SE 03:42:48 10° ESE visible
05 May 2.2 05:16:53 10° WSW 05:20:05 22° S 05:23:18 10° SE visible
06 May 3.1 03:32:13 15° SE 03:32:13 15° SE 03:33:08 10° ESE visible
06 May 2.3 05:07:38 11° WSW 05:10:23 20° SSW 05:13:23 10° SE visible
07 May 3.4 03:23:19 11° SE 03:23:19 11° SE 03:23:25 10° SE visible
07 May 2.5 04:58:43 13° SW 05:00:39 17° SSW 05:03:24 10° SSE visible
08 May 2.6 04:49:58 14° SSW 04:50:55 15° SSW 04:53:17 10° SSE visible
09 May 2.8 04:41:22 12° SSW 04:41:22 12° SSW 04:42:55 10° S visible
